CAPE
0 0 0 0 0 0 0 0 0 0 0 0 0 0 0 0 0 0 0 0 0 3 2 1 7 7 1 1 5 41 45 4 4 12 16 7 38 10 0 0 0 0 0
0 0 0 0 0 0 0 0 0 0 0 0 0 0 0 0 0 0 0 0 0 2 2 9 3 2 2 1 25 25 11 1 38 13 3 1 22 0 0 0 0 0 0
0 0 0 0 0 0 0 0 0 0 0 0 0 0 0 0 0 0 0 0 0 0 10 7 25 15 24 4 5 8 5 20 31 21 0 0 0 0 0 0 0 0 0
0 0 0 0 0 0 0 0 0 0 0 0 0 0 0 0 0 0 0 0 0 4 11 16 3 3 13 10 2 2 7 37 42 20 1 6 0 0 0 0 0 0 0
0 0 0 0 0 0 0 0 0 0 0 0 0 0 0 0 0 0 4 1 0 4 9 5 7 13 19 22 37 13 19 49 42 11 3 7 0 0 0 0 0 2 1
0 0 0 0 0 0 0 0 0 0 0 0 0 0 0 0 0 1 9 5 2 0 0 1 1 8 2 7 6 65 16 10 11 8 0 10 0 0 0 1 0 18 4
0 0 0 0 0 0 0 0 0 0 0 0 0 0 0 0 0 0 8 9 1 0 1 1 2 3 6 3 2 39 115 37 5 0 8 1 0 0 0 7 3 2 0
0 0 0 0 0 0 0 0 0 0 0 0 0 0 0 0 0 0 3 5 0 0 0 2 16 0 0 4 5 45 40 28 19 0 0 0 0 0 0 1 0 3 0
0 0 0 0 0 0 0 0 0 0 0 0 0 0 0 0 1 1 13 4 5 0 0 11 14 3 3 6 12 4 7 11 35 8 0 0 9 0 0 2 18 20 5
0 0 0 0 0 0 0 0 0 0 0 0 0 0 6 0 0 1 14 11 5 5 4 2 3 3 6 8 5 3 15 3 22 9 0 0 12 6 0 0 6 4 3
0 0 0 0 0 0 0 0 0 0 0 0 0 0 3 0 0 0 3 12 8 6 0 0 0 2 5 5 4 4 2 19 2 0 0 3 9 10 12 1 0 0 0
0 0 0 0 0 0 0 0 0 0 0 0 0 0 0 0 0 0 5 14 17 0 0 0 0 2 3 4 3 4 2 9 3 3 2 39 12 12 10 7 0 0 0
0 0 0 0 0 0 0 0 0 0 0 0 0 0 0 0 0 0 2 6 5 2 0 0 0 4 2 1 2 2 1 66 27 10 1 4 20 9 12 12 0 0 0
0 0 0 0 0 0 0 0 0 0 0 0 2 6 1 0 0 4 0 1 2 0 0 0 3 4 2 3 3 2 2 29 8 0 2 4 11 5 6 3 0 0 0
0 0 0 0 0 0 0 0 0 0 0 0 2 4 6 3 6 8 2 3 3 0 0 4 7 1 2 2 1 2 3 42 2 0 1 0 3 1 0 0 0 0 0
0 0 0 0 0 0 0 0 0 0 0 0 6 19 8 2 4 2 2 9 0 0 4 8 3 5 3 3 3 3 3 30 46 9 3 0 1 0 0 0 0 0 0
0 0 0 0 0 0 0 0 0 0 0 0 6 19 13 13 13 6 4 0 0 0 21 6 7 3 2 3 3 3 3 3 35 29 10 0 0 0 0 0 0 0 0
0 0 0 0 0 0 0 0 0 0 0 0 0 14 13 22 7 2 1 0 0 1 13 13 4 2 2 3 2 3 3 5 49 1 0 0 0 0 0 0 0 0 0
0 0 0 0 0 0 0 0 0 0 1 0 0 2 10 16 4 2 0 0 0 4 1 13 0 0 2 2 2 2 3 4 0 1 0 0 0 0 0 0 0 0 0
0 0 1 0 1 0 0 0 0 2 0 0 0 3 0 6 7 1 1 0 0 4 0 7 0 0 2 2 2 3 3 3 1 1 0 0 0 0 0 0 0 0 0
0 0 0 0 0 3 4 12 9 0 0 0 0 1 12 18 13 0 0 0 0 2 0 4 0 0 0 2 2 3 3 4 3 2 0 0 0 0 0 0 0 0 0
0 0 0 1 7 7 0 3 4 2 4 6 10 10 7 3 7 0 0 0 0 0 0 2 0 0 0 2 2 2 3 3 0 15 1 0 0 0 0 0 0 0 0
1 1 3 1 0 0 0 2 0 1 0 1 2 1 4 7 7 4 0 0 0 0 0 2 0 0 0 0 1 2 2 3 3 1 0 0 0 0 0 0 0 0 0
3 0 0 0 0 3 3 0 1 0 0 7 8 2 6 16 12 5 2 1 0 0 0 4 0 0 0 0 0 2 2 2 1 0 1 0 0 0 0 0 0 0 0
0 0 0 0 2 2 0 0 0 0 0 0 8 12 15 10 8 4 5 3 5 0 3 1 0 0 0 0 0 0 0 0 0 0 0 0 0 0 0 0 0 0 0
0 0 0 1 1 0 0 0 0 0 0 3 3 10 12 13 0 1 2 8 11 1 3 0 0 0 0 0 0 0 0 0 0 0 1 0 0 0 0 0 0 0 0
CIN
-0 -0 -0 -0 -0 -0 -0 -0 -0 -0 -0 -0 -0 -0 -0 -0 -0 -0 -0 -0 -0 -10 -6 -1 -0 -0 -0 -0 -2 -0 -0 -1 -1 -0 -7 -23 -30 -17 -0 -0 -0 -0 -0
-0 -0 -0 -0 -0 -0 -0 -0 -0 -0 -0 -0 -0 -0 -0 -0 -0 -0 -0 -0 -0 -17 -1 -0 -0 -1 -0 -0 -0 -1 -0 -19 -0 -2 -2 -0 -31 -0 -0 -0 -0 -0 -0
-0 -0 -0 -0 -0 -0 -0 -0 -0 -0 -0 -0 -0 -0 -0 -0 -0 -0 -0 -0 -0 -0 -4 -1 -0 -0 -0 -0 -10 -0 -25 -7 -2 -0 -0 -0 -0 -0 -0 -0 -0 -0 -0
-0 -0 -0 -0 -0 -0 -0 -0 -0 -0 -0 -0 -0 -0 -0 -0 -0 -0 -0 -0 -0 -11 -5 -1 -0 -0 -0 -0 -0 -0 -12 -0 -6 -0 -0 -0 -0 -0 -0 -0 -0 -0 -0
-0 -0 -0 -0 -0 -0 -0 -0 -0 -0 -0 -0 -0 -0 -0 -0 -0 -0 -5 -9 -0 -11 -13 -5 -0 -0 -0 -6 -8 -17 -1 -0 -1 -2 -0 -0 -0 -0 -0 -0 -0 -1 -0
-0 -0 -0 -0 -0 -0 -0 -0 -0 -0 -0 -0 -0 -0 -0 -0 -0 -0 -1 -3 -7 -7 -1 -2 -0 -0 -0 -0 -0 -0 -2 -15 -9 -15 -0 -0 -0 -0 -0 -0 -0 -1 -0
-0 -0 -0 -0 -0 -0 -0 -0 -0 -0 -0 -0 -0 -0 -0 -0 -0 -0 -0 -1 -6 -0 -8 -2 -1 -0 -0 -0 -0 -0 -0 -0 -6 -0 -0 -4 -0 -0 -0 -0 -1 -1 -0
-0 -0 -0 -0 -0 -0 -0 -0 -0 -0 -0 -0 -0 -0 -0 -0 -0 -0 -1 -3 -0 -0 -0 -9 -0 -0 -0 -0 -0 -2 -7 -1 -1 -6 -22 -0 -7 -0 -0 -0 -0 -2 -3
-0 -0 -0 -0 -0 -0 -0 -0 -0 -0 -0 -0 -0 -0 -0 -0 -0 -0 -0 -4 -7 -0 -0 -4 -1 -0 -0 -0 -0 -0 -5 -26 -3 -35 -0 -0 -4 -0 -0 -1 -1 -1 -0
-0 -0 -0 -0 -0 -0 -0 -0 -0 -0 -0 -0 -0 -0 -1 -2 -0 -1 -0 -3 -5 -10 -8 -7 -1 -0 -0 -0 -0 -0 -1 -12 -11 -16 -0 -0 -3 -6 -0 -0 -4 -1 -0
-0 -0 -0 -0 -0 -0 -0 -0 -0 -0 -0 -0 -0 -0 -1 -0 -0 -0 -1 -3 -4 -6 -0 -0 -0 -0 -0 -0 -0 -0 -0 -11 -37 -0 -0 -2 -1 -2 -3 -1 -0 -0 -0
-0 -0 -0 -0 -0 -0 -0 -0 -0 -0 -0 -0 -0 -0 -0 -0 -0 -0 -1 -1 -1 -3 -0 -0 -0 -0 -0 -0 -0 -0 -0 -12 -28 -9 -1 -4 -2 -13 -2 -2 -0 -0 -0
-0 -0 -0 -0 -0 -0 -0 -0 -0 -0 -0 -0 -0 -0 -0 -0 -0 -0 -1 -1 -1 -1 -0 -0 -0 -0 -0 -0 -0 -0 -0 -0 -1 -1 -0 -0 -6 -1 -1 -2 -1 -0 -0
-0 -0 -0 -0 -0 -0 -0 -0 -0 -0 -0 -0 -8 -2 -8 -0 -0 -4 -0 -4 -1 -0 -0 -0 -0 -0 -0 -0 -0 -0 -0 -3 -24 -40 -10 -13 -14 -3 -2 -4 -0 -0 -0
-0 -0 -0 -0 -0 -0 -0 -0 -0 -0 -0 -0 -4 -7 -5 -1 -2 -1 -2 -3 -2 -0 -0 -4 -0 -0 -0 -0 -0 -0 -0 -1 -4 -12 -0 -7 -1 -1 -3 -0 -0 -0 -0
-0 -0 -0 -0 -0 -0 -0 -0 -0 -0 -0 -0 -14 -3 -4 -3 -0 -1 -2 -0 -0 -0 -4 -1 -0 -0 -0 -0 -0 -0 -0 -19 -0 -25 -0 -0 -1 -0 -0 -0 -0 -0 -0
-0 -0 -0 -0 -0 -0 -0 -0 -0 -0 -0 -0 -11 -6 -4 -4 -1 -0 -0 -0 -0 -0 -2 -2 -0 -0 -0 -0 -0 -0 -0 -0 -2 -0 -0 -2 -0 -0 -0 -0 -0 -0 -0
-0 -0 -0 -0 -0 -0 -0 -0 -0 -0 -0 -0 -0 -17 -10 -3 -1 -0 -1 -0 -0 -3 -2 -1 -1 -0 -0 -0 -0 -0 -0 -0 -1 -0 -0 -0 -0 -0 -0 -0 -0 -0 -0
-0 -0 -0 -0 -0 -1 -0 -0 -0 -0 -0 -0 -0 -4 -17 -8 -0 -0 -0 -0 -0 -1 -8 -2 -4 -0 -0 -0 -0 -0 -0 -0 -0 -0 -0 -0 -0 -0 -0 -0 -0 -0 -0
-0 -0 -1 -0 -4 -0 -0 -0 -0 -1 -0 -0 -0 -8 -0 -14 -5 -0 -0 -0 -0 -2 -0 -3 -0 -0 -0 -0 -0 -0 -0 -0 -0 -0 -0 -0 -0 -0 -0 -0 -0 -0 -0
-0 -0 -0 -0 -0 -3 -2 -0 -0 -0 -0 -0 -0 -11 -8 -1 -6 -2 -2 -0 -0 -3 -0 -4 -0 -0 -0 -0 -0 -0 -0 -0 -0 -24 -0 -0 -0 -0 -0 -0 -0 -0 -0
-0 -0 -0 -1 -0 -1 -0 -2 -1 -4 -1 -2 -4 -9 -7 -6 -9 -1 -0 -1 -0 -2 -0 -6 -2 -1 -0 -0 -0 -0 -0 -0 -0 -6 -8 -0 -0 -0 -0 -0 -0 -0 -0
-2 -7 -3 -1 -0 -0 -5 -1 -0 -1 -1 -8 -6 -5 -11 -10 -5 -4 -0 -0 -0 -2 -0 -4 -0 -0 -0 -0 -0 -0 -0 -0 -0 -0 -13 -0 -0 -0 -0 -0 -0 -0 -0
-3 -0 -3 -0 -3 -1 -3 -0 -3 -0 -0 -1 -13 -15 -11 -3 -6 -7 -4 -5 -7 -2 -0 -3 -0 -0 -0 -0 -0 -0 -0 -0 -0 -0 -0 -0 -0 -0 -0 -0 -0 -0 -0
-0 -4 -3 -4 -2 -0 -0 -0 -0 -0 -0 -3 -5 -0 -1 -10 -15 -15 -11 -9 -9 -2 -5 -2 -0 -0 -0 -0 -0 -0 -0 -0 -0 -0 -0 -0 -0 -0 -0 -0 -0 -0 -0
-4 -2 -4 -3 -2 -0 -0 -0 -0 -0 -0 -8 -9 -2 -4 -0 -8 -27 -22 -20 -8 -9 -4 -4 -0 -0 -0 -0 -0 -0 -0 -0 -0 -0 -0 -0 -0 -0 -0 -0 -0 -0 -0
Wind_Speed
15 17 19 22 22 23 26 28 29 29 31 32 34 34 32 29 29 29 25 20 20 30 27 18 29 22 41 43 43 44 44 45 50 46 40 40 45 40 37 36 35 36 35
14 17 19 21 22 24 26 27 29 30 31 32 33 32 30 27 28 26 20 21 21 28 30 29 29 25 39 40 38 42 42 44 47 47 41 39 48 43 39 40 37 38 36
14 16 19 21 22 24 26 27 29 30 30 30 30 31 29 26 25 22 15 14 21 21 20 36 29 30 37 34 38 40 42 46 42 41 44 39 51 44 41 42 38 38 37
13 16 19 20 22 23 25 28 29 28 29 30 30 29 27 25 23 20 15 12 16 19 25 37 34 33 36 32 38 41 42 38 38 40 42 41 47 44 42 42 41 38 38
14 17 18 19 21 23 26 28 28 28 29 30 30 28 27 26 23 19 35 26 25 21 36 32 34 36 34 32 36 39 41 41 39 38 36 43 45 45 45 43 42 37 37
15 17 18 19 21 23 25 27 29 30 30 29 29 30 28 27 23 27 37 40 36 30 36 36 33 35 34 34 36 42 40 42 41 40 37 48 47 45 44 44 42 40 37
14 16 19 20 21 24 26 29 30 32 31 29 29 29 28 25 23 33 38 39 36 32 35 34 30 33 34 34 33 35 46 44 42 41 33 39 45 46 42 45 44 41 38
16 18 19 20 22 24 28 30 31 31 30 29 30 28 26 25 22 38 39 39 38 35 35 35 34 33 33 34 32 35 38 42 43 41 38 38 47 46 44 45 43 38 32
17 18 18 20 23 26 29 31 30 30 30 29 28 28 27 24 22 41 39 39 39 37 34 33 33 33 34 35 34 34 38 42 41 47 43 36 48 45 45 43 45 40 36
16 16 18 21 24 26 28 29 29 29 30 29 28 28 27 25 26 41 39 38 37 36 33 32 31 31 35 38 37 35 38 42 42 43 44 40 46 45 48 46 44 41 36
14 17 20 21 24 26 28 28 30 30 30 29 29 29 27 29 29 41 38 37 36 34 34 33 31 33 32 34 34 31 32 35 36 39 40 39 42 45 49 47 46 42 36
15 18 19 21 24 25 27 28 29 30 29 29 30 29 29 27 25 39 37 36 35 36 35 34 33 33 33 29 27 27 29 37 33 39 37 41 45 48 49 47 44 43 41
17 19 20 22 24 26 27 29 30 29 30 31 31 31 31 28 28 38 36 35 35 35 34 34 33 32 31 27 26 25 30 35 39 40 41 44 44 46 45 43 40 40 36
18 20 22 24 25 26 26 28 29 30 29 32 32 31 31 27 27 36 34 34 34 34 33 32 30 31 27 26 23 22 28 35 37 40 37 41 37 42 45 43 41 39 36
19 22 23 24 26 26 27 27 27 25 27 32 28 27 28 24 27 36 35 34 33 33 33 29 29 29 25 24 23 23 24 34 38 36 41 36 37 41 45 43 41 39 37
20 22 23 25 26 26 28 28 23 24 29 26 23 22 22 19 29 34 33 32 32 32 29 25 27 26 24 24 23 24 26 33 38 39 39 36 37 41 44 42 40 40 36
20 22 24 25 26 27 28 29 30 28 26 23 22 21 18 16 30 33 32 31 30 29 25 24 25 25 23 22 23 23 26 29 35 39 43 40 39 40 43 42 41 39 37
21 22 24 24 25 26 28 29 29 26 26 25 22 21 18 16 34 32 30 29 26 25 25 23 24 25 24 22 22 23 25 27 32 38 40 40 39 40 42 41 41 39 37
23 23 23 24 26 25 25 26 24 25 23 23 23 21 19 20 33 30 28 26 27 26 24 24 24 24 23 24 22 22 23 28 31 38 41 41 39 39 40 39 39 39 37
22 22 23 25 25 26 24 24 23 23 24 24 22 23 21 21 32 28 27 27 27 26 25 24 24 24 24 23 21 22 21 25 28 37 39 41 39 38 39 39 39 40 39
22 24 26 24 24 25 24 23 24 25 23 21 20 19 20 24 32 30 28 28 27 26 25 25 24 24 23 23 22 20 20 23 26 33 40 43 39 39 38 36 37 39 37
23 22 22 24 25 25 25 24 23 23 20 21 20 20 22 25 31 30 29 29 28 27 25 24 24 24 24 22 22 20 20 22 29 41 38 44 42 38 37 36 36 39 36
21 23 24 25 27 26 24 23 23 20 19 18 20 22 22 28 29 28 28 28 27 27 25 24 23 24 24 24 22 21 21 22 28 36 40 43 47 41 37 35 35 36 37
22 23 26 27 26 25 23 23 21 19 17 16 19 20 20 30 28 27 27 27 27 26 25 23 22 23 23 23 23 24 25 25 27 37 43 39 43 41 38 39 36 39 38
23 23 26 26 25 21 22 22 21 18 16 15 17 19 23 29 27 26 26 26 26 25 23 22 21 21 22 23 22 23 25 25 25 32 36 36 41 41 41 39 40 41 40
22 23 25 23 24 21 22 22 21 17 15 15 16 17 24 27 26 26 25 24 23 23 22 21 21 20 21 21 22 25 25 25 22 29 36 34 36 37 38 39 41 41 41
Wind_Direction
322 327 334 335 337 338 338 337 337 337 339 339 339 339 338 337 336 336 334 277 280 274 277 297 273 271 267 257 246 238 238 236 237 242 243 239 219 216 212 215 215 216 218
322 329 332 335 337 338 338 339 339 339 340 340 340 339 338 338 337 334 328 276 277 278 281 279 275 268 270 250 238 239 243 239 231 237 237 237 213 213 213 213 216 217 217
323 329 332 334 337 338 338 339 340 340 340 340 339 340 339 336 335 332 292 304 277 285 282 283 276 274 278 249 243 235 242 239 227 231 234 238 210 211 211 213 215 216 217
322 327 330 334 336 338 339 340 340 340 340 340 341 340 338 335 336 333 288 303 291 286 276 286 281 276 284 258 250 249 244 237 233 227 230 235 205 207 209 209 211 213 213
326 328 330 333 336 338 340 340 340 340 341 340 340 339 340 339 337 338 300 279 278 280 286 287 283 284 279 268 265 246 234 228 228 231 238 222 205 204 207 207 208 208 210
324 326 330 334 337 338 339 340 342 342 343 341 341 341 340 341 338 293 283 287 283 280 289 294 286 287 289 280 271 239 236 230 224 226 237 221 204 206 206 206 204 202 203
322 328 334 335 337 339 341 343 344 344 344 343 342 343 341 340 339 281 285 288 283 281 286 289 283 285 286 285 274 255 230 231 228 221 235 207 207 207 204 205 205 204 206
326 331 334 336 338 341 343 343 344 344 344 344 343 343 343 343 340 287 288 290 291 285 286 287 288 280 282 287 282 251 244 233 233 230 225 230 214 208 207 206 203 203 205
327 331 334 337 339 342 343 343 344 344 344 343 344 344 343 343 342 295 293 298 300 288 286 287 286 280 280 282 276 259 245 232 231 226 226 229 215 210 204 201 201 200 199
329 331 336 339 340 341 342 343 344 345 344 344 345 345 345 346 347 306 295 297 291 290 287 286 284 280 282 282 269 255 245 229 221 222 225 228 212 209 203 203 200 200 197
331 335 337 340 340 341 342 344 344 345 345 344 346 347 349 350 345 301 294 294 290 293 290 289 287 285 281 278 272 252 246 228 224 221 224 223 208 206 203 204 205 204 198
333 335 337 340 340 341 342 343 345 344 345 344 345 347 347 347 346 298 290 287 290 294 290 289 288 287 284 280 274 255 235 218 222 218 222 214 206 206 203 204 205 207 210
335 336 337 339 340 341 342 343 344 346 346 346 346 346 345 345 344 296 290 288 289 289 288 286 290 292 293 281 272 253 228 218 216 217 218 203 207 203 202 203 204 206 209
335 337 339 339 340 342 343 345 344 345 347 346 345 343 343 343 343 303 291 289 289 289 288 288 289 295 285 280 272 252 233 222 223 217 214 203 202 200 201 201 200 201 203
336 337 339 341 342 343 344 344 344 348 349 345 344 344 345 344 337 291 287 285 286 285 287 285 293 300 287 283 276 260 245 223 217 216 205 198 199 198 200 200 199 199 203
337 338 340 342 343 344 344 343 346 348 345 345 344 345 348 347 276 288 284 282 281 282 283 284 295 294 282 279 272 258 241 228 219 218 208 199 196 197 198 198 199 201 199
337 339 341 342 343 342 344 346 346 345 348 351 352 354 353 348 279 291 284 280 279 279 277 281 292 292 284 277 271 260 242 235 223 217 202 198 195 197 196 197 198 199 199
339 340 341 343 345 346 347 346 345 347 349 351 356 357 359 355 305 291 285 281 277 280 277 277 291 295 291 284 274 260 245 237 225 203 199 196 195 195 197 198 199 197 198
340 342 343 345 346 346 347 348 349 350 350 352 353 357 1 353 301 290 286 276 274 276 275 273 291 295 289 287 276 270 252 234 228 202 199 200 196 194 198 198 198 198 196
343 344 347 349 349 348 349 348 349 350 351 350 351 354 355 352 301 283 281 278 272 274 274 275 289 297 294 291 279 276 257 235 223 199 200 200 196 194 196 197 198 197 201
347 349 347 351 353 351 350 351 349 345 348 349 350 350 352 343 296 278 276 276 274 272 275 276 287 297 290 291 289 274 262 245 226 212 202 198 197 197 198 198 199 201 202
348 353 354 352 353 356 354 351 351 351 351 353 354 354 352 337 292 275 273 273 274 276 273 273 283 291 292 284 284 282 270 258 234 215 209 205 203 199 200 199 198 203 204
355 355 357 356 353 353 354 354 355 355 355 355 358 356 354 325 289 274 273 268 272 273 271 270 282 289 294 287 284 285 273 266 245 226 209 205 203 202 202 200 198 201 205
358 1 356 355 357 358 359 0 359 360 0 0 360 1 358 302 285 274 270 269 270 271 271 269 280 285 290 288 287 293 288 278 255 226 209 202 203 205 205 204 203 206 205
1 2 359 359 0 4 4 4 5 6 5 7 6 4 354 301 283 274 267 266 267 270 270 268 275 282 287 289 287 290 287 279 249 223 206 206 206 205 207 206 207 210 208
6 4 2 5 7 11 6 7 8 10 13 12 10 8 350 300 281 273 263 265 269 271 269 268 273 279 287 288 291 298 295 284 249 221 209 206 202 204 204 207 206 209 208